Content
SEND FEEDBACK

Daily
Averages
Monthly
Summary
United States of America

ENKA, NORTH CAROLINA


Home > North America > United States > North Carolina
Elevation: 2122 feet     Latitude: 35 33N     Longitude: 082 39W

WEATHER
 
SELECT A DAY
Number of Records: 228,713;   Date Range: 1/1/95 - 9/29/14
 
SHARE

PRINT THIS DATA

[ ← Previous Day ]
WEATHER ALMANAC - MAY 17, 2013
[ Next Day → ]
[ °C ]   °F
Weather ElementAverageHighLow
Temperature66.8 °F79 °F (3:54 pm)54 °F (3:54 am)
Dewpoint55 °F59 °F (2:54 pm)51.8 °F (3:50 pm)
Humidity68.7 %97 % (3:54 am)39 % (3:50 pm)
Barometer30.08 in30.15 in (7:54 am)30.03 in (1:54 am)
Wind Speed4.4 mph10.4 mph (3:54 pm)
Weather ElementAverage
Visibility9.8 mi
Wind DirectionSE (130 °)

Weather ElementTotal
Precipitation---
Cooling Degree Days1.5 (Base 65)
Growing Degree Days16.5 (Base 50)
Averaged from 24 records on May 17, 2013
WEATHER CONDITIONS BREAKOUT
WIND DIRECTION BREAKOUT
WEATHER BY HOUR - MAY 17, 2013
[ °C ]   °F
Local TimeTemperatureDewpointHumidityBarometerVisibilityWind DirectionWind SpeedGust SpeedPrecipitationEventsConditions
1:54 AM57.0 °F54.0 °F89 %30.03 in10.0 miCalmClear
2:54 AM55.9 °F54.0 °F93 %30.03 in10.0 miCalmClear
3:54 AM54.0 °F53.1 °F97 %30.05 in10.0 miWNW (300°)3.5 mphClear
4:54 AM54.0 °F52.0 °F93 %30.06 in10.0 miNNW (340°)4.6 mphClear
5:54 AM54.0 °F52.0 °F93 %30.07 in10.0 miCalmClear
6:54 AM54.0 °F52.0 °F93 %30.09 in7.0 miCalmClear
7:54 AM57.2 °F53.6 °F88 %30.15 in8.0 miCalmClear
8:54 AM60.1 °F55.9 °F86 %30.12 in10.0 miWNW (300°)3.5 mphScattered Clouds
9:54 AM63.0 °F55.9 °F78 %30.12 in10.0 miCalmScattered Clouds
10:54 AM69.1 °F57.0 °F65 %30.12 in10.0 miNorth (350°)3.5 mphMostly Cloudy
11:54 AM73.9 °F55.9 °F53 %30.10 in10.0 miCalmPartly Cloudy
12:54 PM77.0 °F57.9 °F52 %30.09 in10.0 miSouth (180°)5.8 mphClear
1:54 PM75.0 °F55.9 °F51 %30.08 in10.0 miSSE (160°)6.9 mphMostly Cloudy
2:54 PM75.2 °F59.0 °F57 %30.12 in10.0 miSouth (190°)9.2 mphMostly Cloudy
3:50 PM78.8 °F51.8 °F39 %30.11 in10.0 miSSE (160°)9.2 mphClear
3:54 PM79.0 °F55.0 °F44 %30.05 in10.0 miSouth (170°)10.4 mphClear
4:54 PM77.0 °F55.0 °F47 %30.04 in10.0 miSSW (210°)9.2 mphClear
5:54 PM77.0 °F54.0 °F45 %30.03 in10.0 miSouth (190°)10.4 mphClear
6:54 PM73.9 °F57.9 °F57 %30.04 in10.0 miSouth (190°)10.4 mphPartly Cloudy
7:54 PM72.0 °F57.9 °F61 %30.06 in10.0 miSSW (200°)9.2 mphClear
8:54 PM69.1 °F55.0 °F61 %30.07 in10.0 miSouth (180°)9.2 mphClear
9:54 PM66.9 °F55.0 °F66 %30.08 in10.0 miCalmPartly Cloudy
10:54 PM66.0 °F55.0 °F68 %30.09 in10.0 miCalmPartly Cloudy
11:54 PM64.9 °F55.9 °F73 %30.09 in10.0 miCalmMostly Cloudy
Hourly data recorded from KAVL, located miles away from Enka, North Carolina







STORIES FROM OUR PARTNERS